Location: Zagreb
(45.8000°N, 16.0000°E)
Time: 14:07:48
(UTC+02:00)

Transit 2A - Pass Details

Date: 10 August 2022
Orbit: 601 x 956 km, 66.7° (Epoch: 25 September)

Event Time Altitude Azimuth Distance (km) Brightness Sun altitude
Rises 12:53:31 0° 210° (SSW) 3,174 9.6 59.6°
Reaches altitude 10° 12:55:58 10° 210° (SSW) 2,198 8.9 59.7°
Maximum altitude 13:00:56 87° 121° (ESE) 678 7.1 59.7°
Drops below altitude 10° 13:05:30 10° 34° (NNE) 2,028 8.1 59.7°
Sets 13:07:42 0° 34° (NE) 2,909 8.7 59.7°
